H1 CPF 2 NER 2022 3 19 10 078 01 glonass106 H2 0705201 9106 32275 2022 3 19 0 0 0 2022 3 22 23 45 0 900 1 1 0 0 0 1 H9 10 0 59657 0.00000 0 -24887350.642 -2692685.203 -4891238.723 10 0 59657 900.00000 0 -25324697.338 -2533063.750 -1673241.126 10 0 59657 1800.00000 0 -25352730.830 -2304466.719 1577271.329 10 0 59657 2700.00000 0 -24965751.185 -2064536.011 4797133.994 10 0 59657 3600.00000 0 -24171934.733 -1870923.266 7923780.421 10 0 59657 4500.00000 0 -22993033.752 -1778611.654 10896461.424 10 0 59657 5400.00000 0 -21463524.796 -1837354.040 13657427.913 10 0 59657 6300.00000 0 -19629241.488 -2089336.631 16153054.152 10 0 59657 7200.00000 0 -17545549.275 -2567167.495 18334879.324 10 0 59657 8100.00000 0 -15275138.731 -3292275.512 20160547.245 10 0 59657 9000.00000 0 -12885529.773 -4273787.900 21594626.267 10 0 59657 9900.00000 0 -10446391.052 -5507934.146 22609293.800 10 0 59657 10800.00000 0 -8026786.101 -6978002.095 23184872.785 10 0 59657 11700.00000 0 -5692460.586 -8654848.805 23310210.251 10 0 59657 12600.00000 0 -3503283.059 -10497945.512 22982891.111 10 0 59657 13500.00000 0 -1510944.900 -12456913.887 22209283.395 10 0 59657 14400.00000 0 242985.773 -14473490.232 21004414.231 10 0 59657 15300.00000 0 1728576.219 -16483836.361 19391678.879 10 0 59657 16200.00000 0 2928545.325 -18421101.416 17402388.267 10 0 59657 17100.00000 0 3838742.773 -20218128.243 15075163.353 10 0 59657 18000.00000 0 4468072.176 -21810191.600 12455187.654 10 0 59657 18900.00000 0 4837862.518 -23137653.984 9593331.989 10 0 59657 19800.00000 0 4980715.323 -24148427.914 6545168.012 10 0 59657 20700.00000 0 4938876.968 -24800141.483 3369889.577 10 0 59657 21600.00000 0 4762205.604 -25061916.119 129162.781 10 0 59657 22500.00000 0 4505819.244 -24915681.656 -3114072.816 10 0 59657 23400.00000 0 4227525.095 -24356973.137 -6296828.145 10 0 59657 24300.00000 0 3985139.534 -23395175.515 -9357289.634 10 0 59657 25200.00000 0 3833812.654 -22053205.853 -12236021.072 10 0 59657 26100.00000 0 3823471.135 -20366646.040 -14877118.601 10 0 59657 27000.00000 0 3996488.038 -18382362.284 -17229296.235 10 0 59657 27900.00000 0 4385678.485 -16156668.983 -19246880.827 10 0 59657 28800.00000 0 5012706.347 -13753113.586 -20890697.265 10 0 59657 29700.00000 0 5886969.672 -11239974.778 -22128827.085 10 0 59657 30600.00000 0 7005012.455 -8687577.949 -22937226.203 10 0 59657 31500.00000 0 8350488.216 -6165539.470 -23300190.175 10 0 59657 32400.00000 0 9894677.847 -3740053.852 -23210658.394 10 0 59657 33300.00000 0 11597540.982 -1471335.986 -22670351.546 10 0 59657 34200.00000 0 13409257.865 588675.857 -21689739.735 10 0 59657 35100.00000 0 15272198.229 2398261.579 -20287841.740 10 0 59657 36000.00000 0 17123235.722 3927425.404 -18491858.966 10 0 59657 36900.00000 0 18896311.784 5158904.719 -16336650.731 10 0 59657 37800.00000 0 20525142.249 6088640.434 -13864060.515 10 0 59657 38700.00000 0 21945953.622 6725690.161 -11122105.707 10 0 59657 39600.00000 0 23100134.401 7091588.731 -8164046.217 10 0 59657 40500.00000 0 23936690.038 7219183.902 -5047349.786 10 0 59657 41400.00000 0 24414398.170 7150997.200 -1832574.027 10 0 59657 42300.00000 0 24503573.048 6937179.924 1417812.774 10 0 59657 43200.00000 0 24187364.517 6633151.556 4640648.837 10 0 59657 44100.00000 0 23462536.424 6297021.298 7773309.883 10 0 59657 45000.00000 0 22339691.293 5986902.619 10754929.335 10 0 59657 45900.00000 0 20842931.525 5758235.218 13527583.520 10 0 59657 46800.00000 0 19008971.081 5661228.364 16037418.452 10 0 59657 47700.00000 0 16885734.810 5738534.275 18235695.997 10 0 59657 48600.00000 0 14530503.959 6023250.327 20079739.140 10 0 59657 49500.00000 0 12007685.303 6537334.825 21533758.267 10 0 59657 50400.00000 0 9386296.919 7290503.498 22569542.755 10 0 59657 51300.00000 0 6737275.131 8279653.549 23167005.031 10 0 59657 52200.00000 0 4130714.313 9488840.011 23314567.112 10 0 59657 53100.00000 0 1633153.856 10889805.853 23009382.589 10 0 59657 54000.00000 0 -694975.702 12443044.317 22257390.168 10 0 59657 54900.00000 0 -2801642.142 14099349.647 21073197.869 10 0 59657 55800.00000 0 -4645142.362 15801791.994 19479800.119 10 0 59657 56700.00000 0 -6195595.307 17488034.515 17508132.981 10 0 59657 57600.00000 0 -7435935.954 19092896.299 15196475.752 10 0 59657 58500.00000 0 -8362370.000 20551054.197 12589710.115 10 0 59657 59400.00000 0 -8984271.342 21799770.618 9738450.738 10 0 59657 60300.00000 0 -9323527.826 22781533.024 6698063.821 10 0 59657 61200.00000 0 -9413363.686 23446494.238 3527592.458 10 0 59657 62100.00000 0 -9296689.209 23754610.738 288609.641 10 0 59657 63000.00000 0 -9024048.082 23677388.820 -2955978.711 10 0 59657 63900.00000 0 -8651249.807 23199164.560 -6143157.064 10 0 59657 64800.00000 0 -8236787.967 22317863.329 -9211025.802 10 0 59657 65700.00000 0 -7839154.125 21045206.473 -12100004.811 10 0 59657 66600.00000 0 -7514161.447 19406356.019 -14753991.303 10 0 59657 67500.00000 0 -7312391.628 17439011.876 -17121449.239 10 0 59657 68400.00000 0 -7276873.365 15191998.862 -19156409.192 10 0 59657 69300.00000 0 -7441090.717 12723402.306 -20819359.307 10 0 59657 70200.00000 0 -7827405.666 10098329.666 -22078010.435 10 0 59657 71100.00000 0 -8445961.722 7386390.967 -22907921.009 10 0 59657 72000.00000 0 -9294115.127 4659002.536 -23292969.928 10 0 59657 72900.00000 0 -10356418.128 1986625.520 -23225668.722 10 0 59657 73800.00000 0 -11605155.708 -563946.764 -22707307.184 10 0 59657 74700.00000 0 -13001413.992 -2932140.588 -21747929.731 10 0 59657 75600.00000 0 -14496636.359 -5065887.552 -20366142.846 10 0 59657 76500.00000 0 -16034602.840 -6923550.104 -18588756.988 10 0 59657 77400.00000 0 -17553750.523 -8475407.498 -16450269.489 10 0 59657 78300.00000 0 -18989738.211 -9704641.208 -13992197.914 10 0 59657 79200.00000 0 -20278148.125 -10607779.523 -11262276.272 10 0 59657 80100.00000 0 -21357211.271 -11194583.616 -8313529.291 10 0 59657 81000.00000 0 -22170441.870 -11487380.805 -5203242.471 10 0 59657 81900.00000 0 -22669069.701 -11519873.991 -1991847.823 10 0 59657 82800.00000 0 -22814167.500 -11335478.304 1258252.772 10 0 59657 83700.00000 0 -22578383.256 -10985256.098 4483903.375 10 0 59657 84600.00000 0 -21947203.789 -10525538.378 7622424.848 10 0 59657 85500.00000 0 -20919695.811 -10015334.060 10612836.152 10 0 59658 0.00000 0 -19508692.834 -9513637.425 13397041.614 10 0 59658 900.00000 0 -17740418.742 -9076748.024 15920962.137 10 0 59658 1800.00000 0 -15653565.393 -8755717.500 18135584.367 10 0 59658 2700.00000 0 -13297860.002 -8594030.690 19997912.474 10 0 59658 3600.00000 0 -10732183.693 -8625619.812 21471800.490 10 0 59658 4500.00000 0 -8022318.780 -8873295.374 22528650.917 10 0 59658 5400.00000 0 -5238418.375 -9347660.090 23147966.381 10 0 59658 6300.00000 0 -2452303.131 -10046551.633 23317744.158 10 0 59658 7200.00000 0 265303.033 -10955037.864 23034706.407 10 0 59658 8100.00000 0 2847484.122 -12045965.050 22304362.049 10 0 59658 9000.00000 0 5233678.454 -13281036.470 21140899.249 10 0 59658 9900.00000 0 7371955.297 -14612376.623 19566910.579 10 0 59658 10800.00000 0 9220928.197 -15984515.961 17612955.971 10 0 59658 11700.00000 0 10751226.418 -17336713.399 15316971.541 10 0 59658 12600.00000 0 11946464.169 -18605519.505 12723535.341 10 0 59658 13500.00000 0 12803668.273 -19727473.077 9883003.826 10 0 59658 14400.00000 0 13333147.442 -20641817.899 6850535.401 10 0 59658 15300.00000 0 13557809.588 -21293125.305 3685019.834 10 0 59658 16200.00000 0 13511956.972 -21633712.145 447934.267 10 0 59658 17100.00000 0 13239610.727 -21625751.839 -2797851.866 10 0 59658 18000.00000 0 12792436.148 -21242988.987 -5989299.443 10 0 59658 18900.00000 0 12227357.224 -20471984.950 -9064425.647 10 0 59658 19800.00000 0 11603961.715 -19312841.131 -11963509.216 10 0 59658 20700.00000 0 10981806.983 -17779369.018 -14630251.049 10 0 59658 21600.00000 0 10417740.826 -15898699.143 -17012867.515 10 0 59658 22500.00000 0 9963350.699 -13710344.625 -19065095.149 10 0 59658 23400.00000 0 9662649.224 -11264757.933 -20747087.348 10 0 59658 24300.00000 0 9550093.671 -8621440.469 -22026185.973 10 0 59658 25200.00000 0 9649022.970 -5846683.162 -22877553.330 10 0 59658 26100.00000 0 9970578.142 -3011031.527 -23284652.657 10 0 59658 27000.00000 0 10513151.743 -186579.856 -23239568.254 10 0 59658 27900.00000 0 11262389.737 2555793.839 -22743159.292 10 0 59658 28800.00000 0 12191746.122 5149137.994 -21805044.432 10 0 59658 29700.00000 0 13263567.524 7532971.090 -20443417.455 10 0 59658 30600.00000 0 14430662.778 9655553.856 -18684697.126 10 0 59658 31500.00000 0 15638292.139 11475796.281 -16563017.698 10 0 59658 32400.00000 0 16826493.029 12964720.910 -14119569.356 10 0 59658 33300.00000 0 17932644.916 14106422.175 -11401800.863 10 0 59658 34200.00000 0 18894165.582 14898482.425 -8462499.501 10 0 59658 35100.00000 0 19651225.181 15351828.115 -5358765.874 10 0 59658 36000.00000 0 20149363.539 15490033.036 -2150903.399 10 0 59658 36900.00000 0 20341899.829 15348098.742 1098755.685 10 0 59658 37800.00000 0 20192032.447 14970764.485 4327064.660 10 0 59658 38700.00000 0 19674539.797 14410418.809 7471292.937 10 0 59658 39600.00000 0 18777009.530 13724701.831 10470348.340 10 0 59658 40500.00000 0 17500543.713 12973900.268 13265966.826 10 0 59658 41400.00000 0 15859909.470 12218245.913 15803846.092 10 0 59658 42300.00000 0 13883128.177 11515232.207 18034700.719 10 0 59658 43200.00000 0 11610519.745 10917062.513 19915218.373 10 0 59658 44100.00000 0 9093241.452 10468337.915 21408898.701 10 0 59658 45000.00000 0 6391381.843 10204082.042 22486758.944 10 0 59658 45900.00000 0 3571688.587 10148185.990 23127893.149 10 0 59658 46800.00000 0 705024.292 10312338.643 23319874.646 10 0 59658 47700.00000 0 -2136344.566 10695487.223 23058994.491 10 0 59658 48600.00000 0 -4881513.731 11283850.673 22350331.653 10 0 59658 49500.00000 0 -7463648.276 12051485.323 21207653.753 10 0 59658 50400.00000 0 -9822519.093 12961379.212 19653150.299 10 0 59658 51300.00000 0 -11906764.371 13967029.331 17717003.393 10 0 59658 52200.00000 0 -13675782.960 15014435.800 15436803.830 10 0 59658 53100.00000 0 -15101181.659 16044429.426 12856823.537 10 0 59658 54000.00000 0 -16167717.050 16995234.956 10027158.001 10 0 59658 54900.00000 0 -16873693.457 17805162.244 7002754.894 10 0 59658 55800.00000 0 -17230801.226 18415311.922 3842347.629 10 0 59658 56700.00000 0 -17263403.093 18772181.357 607314.427 10 0 59658 57600.00000 0 -17007299.440 18830060.608 -2639514.837 10 0 59658 58500.00000 0 -16508025.277 18553116.856 -5835080.468 10 0 59658 59400.00000 0 -15818751.397 17917078.663 -8917319.373 10 0 59658 60300.00000 0 -14997878.996 16910448.339 -11826371.911 10 0 59658 61200.00000 0 -14106429.843 15535190.767 -14505745.234 10 0 59658 62100.00000 0 -13205342.531 13806868.740 -16903410.400 10 0 59658 63000.00000 0 -12352789.132 11754218.304 -18972811.891 10 0 59658 63900.00000 0 -11601625.552 9418181.128 -20673769.988 10 0 59658 64800.00000 0 -10997082.993 6850433.439 -21973258.856 10 0 59658 65700.00000 0 -10574797.619 4111472.061 -22846045.629 10 0 59658 66600.00000 0 -10359261.159 1268336.525 -23275178.507 10 0 59658 67500.00000 0 -10362757.441 -1607938.895 -23252314.846 10 0 59658 68400.00000 0 -10584829.439 -4445038.200 -22777883.144 10 0 59658 69300.00000 0 -11012299.215 -7172129.876 -21861075.905 10 0 59658 70200.00000 0 -11619840.024 -9722572.263 -20519673.432 10 0 59658 71100.00000 0 -12371076.756 -12036446.576 -18779701.673 10 0 59658 72000.00000 0 -13220168.711 -14062812.938 -16674930.321 10 0 59658 72900.00000 0 -14113808.428 -15761596.288 -14246220.391 10 0 59658 73800.00000 0 -14993552.669 -17105024.257 -11540733.345 10 0 59658 74700.00000 0 -15798387.466 -18078557.551 -8611016.746 10 0 59658 75600.00000 0 -16467419.054 -18681274.651 -5513983.870 10 0 59658 76500.00000 0 -16942576.905 -18925695.360 -2309806.977 10 0 59658 77400.00000 0 -17171214.359 -18837051.357 939254.005 10 0 59658 78300.00000 0 -17108496.397 -18452035.213 4170064.342 10 0 59658 79200.00000 0 -16719473.035 -17817081.392 7319844.820 10 0 59658 80100.00000 0 -15980749.980 -16986252.483 10327394.992 10 0 59658 81000.00000 0 -14881685.246 -16018820.644 13134285.040 10 0 59658 81900.00000 0 -13425060.403 -14976646.945 15685992.696 10 0 59658 82800.00000 0 -11627197.452 -13921469.701 17932962.769 10 0 59658 83700.00000 0 -9517515.545 -12912216.511 19831568.703 10 0 59658 84600.00000 0 -7137545.357 -12002453.387 21344957.698 10 0 59658 85500.00000 0 -4539441.629 -11238078.361 22443763.278 10 0 59659 0.00000 0 -1784055.433 -10655356.407 23106671.980 10 0 59659 900.00000 0 1061355.791 -10279377.661 23320834.006 10 0 59659 1800.00000 0 3925682.109 -10123004.051 23082109.526 10 0 59659 2700.00000 0 6736678.544 -10186347.097 22395147.483 10 0 59659 3600.00000 0 9423730.378 -10456799.283 21273294.553 10 0 59659 4500.00000 0 11920553.695 -10909617.055 19738336.482 10 0 59659 5400.00000 0 14167719.618 -11509030.857 17820076.542 10 0 59659 6300.00000 0 16114898.154 -12209835.479 15555758.912 10 0 59659 7200.00000 0 17722728.942 -12959393.826 12989347.785 10 0 59659 8100.00000 0 18964241.790 -13699969.785 10170675.717 10 0 59659 9000.00000 0 19825768.370 -14371291.822 7154477.344 10 0 59659 9900.00000 0 20307307.731 -14913239.177 3999327.085 10 0 59659 10800.00000 0 20422331.074 -15268537.058 766501.326 10 0 59659 11700.00000 0 20197034.662 -15385346.694 -2481212.714 10 0 59659 12600.00000 0 19669073.039 -15219640.377 -5680737.942 10 0 59659 13500.00000 0 18885826.492 -14737260.523 -8769934.152 10 0 59659 14400.00000 0 17902276.472 -13915575.184 -11688806.355 10 0 59659 15300.00000 0 16778579.024 -12744659.347 -14380670.807 10 0 59659 16200.00000 0 15577438.926 -11227951.423 -16793255.873 10 0 59659 17100.00000 0 14361395.449 -9382356.370 -18879716.316 10 0 59659 18000.00000 0 13190134.110 -7237790.087 -20599541.356 10 0 59659 18900.00000 0 12117937.511 -4836183.213 -21919339.193 10 0 59659 19800.00000 0 11191382.245 -2229984.865 -22813483.185 10 0 59659 20700.00000 0 10447378.310 519772.182 -23264607.542 10 0 59659 21600.00000 0 9911632.990 3345765.385 -23263943.365 10 0 59659 22500.00000 0 9597603.243 6176940.983 -22811488.818 10 0 59659 23400.00000 0 9505980.235 8941231.754 -21916010.240 10 0 59659 24300.00000 0 9624727.340 11568322.025 -20594874.119 10 0 59659 25200.00000 0 9929669.820 13992345.858 -18873712.905 10 0 59659 26100.00000 0 10385611.310 16154406.916 -16785930.722 10 0 59659 27000.00000 0 10947930.101 18004815.796 -14372058.036 10 0 59659 27900.00000 0 11564587.992 19504952.169 -11678967.262 10 0 59659 28800.00000 0 12178467.000 20628674.418 -8758964.107 10 0 59659 29700.00000 0 12729935.201 21363218.370 -5668771.997 10 0 59659 30600.00000 0 13159533.071 21709547.944 -2468429.176 10 0 59659 31500.00000 0 13410666.417 21682143.511 779879.878 10 0 59659 32400.00000 0 13432191.488 21308237.474 4013035.719 10 0 59659 33300.00000 0 13180782.264 20626529.863 7168213.896 10 0 59659 34200.00000 0 12622979.079 19685438.710 10184109.030 10 0 59659 35100.00000 0 11736831.182 18540959.601 13002128.755 10 0 59659 36000.00000 0 10513063.000 17254225.229 15567533.860 10 0 59659 36900.00000 0 8955714.071 15888868.275 17830502.148 10 0 59659 37800.00000 0 7082224.792 14508299.039 19747095.323 10 0 59659 38700.00000 0 4922963.460 13173012.517 21280110.291 10 0 59659 39600.00000 0 2520213.544 11938038.121 22399798.654 10 0 59659 40500.00000 0 -73337.366 10850638.898 23084440.931 10 0 59659 41400.00000 0 -2796544.844 9948356.371 23320764.927 10 0 59659 42300.00000 0 -5582110.799 9257482.465 23104200.585 10 0 59659 43200.00000 0 -8359147.676 8792021.907 22438966.811 10 0 59659 44100.00000 0 -11055897.944 8553187.951 21337988.785 10 0 59659 45000.00000 0 -13602496.654 8529451.934 19822647.386 10 0 59659 45900.00000 0 -15933663.067 8697144.038 17922365.432 10 0 59659 46800.00000 0 -17991210.186 9021579.550 15674038.379 10 0 59659 47700.00000 0 -19726268.353 9458662.948 13121320.173 10 0 59659 48600.00000 0 -21101130.829 9956901.971 10313777.617 10 0 59659 49500.00000 0 -22090644.976 10459746.594 7305929.292 10 0 59659 50400.00000 0 -22683091.345 10908153.983 4156187.487 10 0 59659 51300.00000 0 -22880514.347 11243270.809 925723.583 10 0 59659 52200.00000 0 -22698491.321 11409119.264 -2322721.010 10 0 59659 53100.00000 0 -22165350.047 11355172.719 -5526054.899 10 0 59659 54000.00000 0 -21320868.177 11038711.507 -8622063.759 10 0 59659 54900.00000 0 -20214509.935 10426858.668 -11550620.124 10 0 59659 55800.00000 0 -18903274.708 9498208.881 -14254852.023 10 0 59659 56700.00000 0 -17449248.536 8243981.069 -16682247.549 10 0 59659 57600.00000 0 -15916961.690 6668645.104 -18785673.841 10 0 59659 58500.00000 0 -14370663.631 4789995.330 -20524290.768 10 0 59659 59400.00000 0 -12871629.738 2638666.709 -21864341.860 10 0 59659 60300.00000 0 -11475612.617 257112.699 -22779807.561 10 0 59659 61200.00000 0 -10230544.549 -2301913.493 -23252908.525 10 0 59659 62100.00000 0 -9174586.836 -4977312.117 -23274449.635 10 0 59659 63000.00000 0 -8334607.181 -7701944.362 -22843998.371 10 0 59659 63900.00000 0 -7725148.294 -10405199.031 -21969894.207 10 0 59659 64800.00000 0 -7347930.349 -13015712.746 -20669088.797 10 0 59659 65700.00000 0 -7191907.579 -15464131.411 -18966819.774 10 0 59659 66600.00000 0 -7233876.197 -17685798.720 -16896124.113 10 0 59659 67500.00000 0 -7439607.698 -19623260.409 -14497199.941 10 0 59659 68400.00000 0 -7765459.526 -21228480.335 -11816628.658 10 0 59659 69300.00000 0 -8160394.942 -22464676.172 -8906472.023 10 0 59659 70200.00000 0 -8568326.583 -23307698.291 -5823261.434 10 0 59659 71100.00000 0 -8930684.326 -23746894.357 -2626898.875 10 0 59659 72000.00000 0 -9189098.459 -23785423.618 620508.928 10 0 59659 72900.00000 0 -9288084.085 -23440008.063 3855860.191 10 0 59659 73800.00000 0 -9177612.488 -22740131.286 7016287.657 10 0 59659 74700.00000 0 -8815459.929 -21726719.276 10040383.515 10 0 59659 75600.00000 0 -8169233.700 -20450359.142 12869395.365 10 0 59659 76500.00000 0 -7217988.951 -18969131.283 15448369.549 10 0 59659 77400.00000 0 -5953367.190 -17346146.689 17727219.266 10 0 59659 78300.00000 0 -4380207.548 -15646893.258 19661696.698 10 0 59659 79200.00000 0 -2516604.146 -13936502.802 21214250.434 10 0 59659 80100.00000 0 -393406.232 -12277053.455 22354751.810 10 0 59659 81000.00000 0 1946818.938 -10725020.344 23061076.598 10 0 59659 81900.00000 0 4451318.172 -9328980.864 23319531.265 10 0 59659 82800.00000 0 7059116.324 -8127670.034 23125116.023 10 0 59659 83700.00000 0 9703331.342 -7148466.510 22481619.968 10 0 59659 84600.00000 0 12313744.984 -6406371.757 21401546.690 10 0 59659 85500.00000 0 14819522.997 -5903524.239 19905871.803 10 0 59660 0.00000 0 17151972.272 -5629268.120 18023637.158 10 0 59660 900.00000 0 19247222.096 -5560772.678 15791388.152 10 0 59660 1800.00000 0 21048715.289 -5664176.059 13252467.321 10 0 59660 2700.00000 0 22509410.045 -5896204.147 10456174.054 10 0 59660 3600.00000 0 23593597.767 -6206196.294 7456808.841 10 0 59660 4500.00000 0 24278262.435 -6538451.786 4312619.446 10 0 59660 5400.00000 0 24553924.830 -6834797.606 1084669.515 10 0 59660 6300.00000 0 24424936.439 -7037268.508 -2164348.335 10 0 59660 7200.00000 0 23909210.913 -7090785.523 -5371331.578 10 0 59660 8100.00000 0 23037404.879 -6945719.120 -8473994.973 10 0 59660 9000.00000 0 21851582.698 -6560227.868 -11412081.717 10 0 59660 9900.00000 0 20403421.733 -5902273.110 -14128534.591 10 0 59660 10800.00000 0 18752033.968 -4951223.832 -16570604.150 10 0 59660 11700.00000 0 16961495.524 -3698983.092 -18690872.394 10 0 59660 12600.00000 0 15098187.970 -2150587.677 -20448172.025 10 0 59660 13500.00000 0 13228062.865 -324254.723 -21808383.801 10 0 59660 14400.00000 0 11413943.903 1749127.765 -22745096.846 10 0 59660 15300.00000 0 9712979.278 4027046.313 -23240119.548 10 0 59660 16200.00000 0 8174350.254 6456900.790 -23283831.527 10 0 59660 17100.00000 0 6837331.073 8977973.682 -22875370.216 10 0 59660 18000.00000 0 5729780.620 11523748.787 -22022648.502 10 0 59660 18900.00000 0 4867128.094 14024483.870 -20742203.129 10 0 59660 19800.00000 0 4251894.326 16409931.101 -19058876.490 10 0 59660 20700.00000 0 3873768.090 18612092.649 -17005337.604 10 0 59660 21600.00000 0 3710233.483 20567897.246 -14621451.079 10 0 59660 22500.00000 0 3727721.380 22221686.472 -11953505.718 10 0 59660 23400.00000 0 3883235.938 23527407.132 -9053317.353 10 0 59660 24300.00000 0 4126387.063 24450418.159 -5977222.985 10 0 59660 25200.00000 0 4401742.445 24968836.480 -2784985.603 10 0 59660 26100.00000 0 4651399.235 25074365.362 461368.853 10 0 59660 27000.00000 0 4817665.918 24772570.583 3698759.514 10 0 59660 27900.00000 0 4845740.191 24082592.952 6864279.694 10 0 59660 28800.00000 0 4686268.777 23036309.465 9896422.552 10 0 59660 29700.00000 0 4297680.045 21676978.695 12736278.996 10 0 59660 30600.00000 0 3648189.962 20057427.683 15328684.114 10 0 59660 31500.00000 0 2717395.851 18237856.899 17623289.486 10 0 59660 32400.00000 0 1497389.798 16283355.702 19575540.507 10 0 59660 33300.00000 0 -6656.033 14261232.698 21147539.882 10 0 59660 34200.00000 0 -1776457.673 12238272.892 22308780.776 10 0 59660 35100.00000 0 -3781143.511 10278036.228 23036735.920 10 0 59660 36000.00000 0 -5978313.354 8438310.072 23317291.719 10 0 59660 36900.00000 0 -8315589.073 6768821.500 23145019.444 10 0 59660 37800.00000 0 -10732593.067 5309304.139 22523278.644 10 0 59660 38700.00000 0 -13163273.066 4087999.316 21464151.010 10 0 59660 39600.00000 0 -15538477.152 3120653.176 19988206.005 10 0 59660 40500.00000 0 -17788672.594 2410050.599 18124102.682 10 0 59660 41400.00000 0 -19846695.864 1946104.369 15908035.062 10 0 59660 42300.00000 0 -21650419.652 1706494.926 13383031.483 10 0 59660 43200.00000 0 -23145226.017 1657832.870 10598121.061 10 0 59660 44100.00000 0 -24286182.634 1757294.569 7607383.051 10 0 59660 45000.00000 0 -25039831.186 1954661.235 4468897.366 10 0 59660 45900.00000 0 -25385513.214 2194674.775 1243616.503 10 0 59660 46800.00000 0 -25316177.843 2419610.327 -2005819.152 10 0 59660 47700.00000 0 -24838637.540 2571956.144 -5216299.316 10 0 59660 48600.00000 0 -23973261.209 2597086.847 -8325471.123 10 0 59660 49500.00000 0 -22753117.573 2445816.324 -11272951.594 10 0 59660 50400.00000 0 -21222605.128 2076721.724 -14001501.222 10 0 59660 51300.00000 0 -19435626.200 1458139.597 -16458135.736 10 0 59660 52200.00000 0 -17453381.859 569749.175 -18595154.338 10 0 59660 53100.00000 0 -15341880.209 -596324.718 -20371064.486 10 0 59660 54000.00000 0 -13169262.219 -2034936.528 -21751385.566 10 0 59660 54900.00000 0 -11003056.788 -3727897.714 -22709316.238 10 0 59660 55800.00000 0 -8907479.380 -5644509.380 -23226252.911 10 0 59660 56700.00000 0 -6940886.481 -7742628.639 -23292149.710 10 0 59660 57600.00000 0 -5153491.378 -9970225.304 -22905713.284 10 0 59660 58500.00000 0 -3585435.856 -12267365.032 -22074428.797 10 0 59660 59400.00000 0 -2265297.343 -14568537.253 -20814416.594 10 0 59660 60300.00000 0 -1209092.953 -16805231.814 -19150122.054 10 0 59660 61200.00000 0 -419821.171 -18908657.578 -17113844.262 10 0 59660 62100.00000 0 112440.556 -20812490.179 -14745112.166 10 0 59660 63000.00000 0 409887.282 -22455534.601 -12089919.738 10 0 59660 63900.00000 0 505815.083 -23784191.406 -9199834.595 10 0 59660 64800.00000 0 442976.756 -24754623.427 -6130997.033 10 0 59660 65700.00000 0 271534.750 -25334532.071 -2943028.748 10 0 59660 66600.00000 0 46698.478 -25504468.450 302127.381 10 0 59660 67500.00000 0 -173853.357 -25258624.175 3541413.668 10 0 59660 68400.00000 0 -332655.619 -24605068.391 6711886.245 10 0 59660 69300.00000 0 -375130.470 -23565421.047 9751941.476 10 0 59660 70200.00000 0 -252138.050 -22173976.148 12602515.776 10 0 59660 71100.00000 0 77704.595 -20476311.926 15208235.116 10 0 59660 72000.00000 0 646035.090 -18527446.449 17518491.479 10 0 59660 72900.00000 0 1473172.528 -16389616.199 19488425.321 10 0 59660 73800.00000 0 2567026.595 -14129770.728 21079795.073 10 0 59660 74700.00000 0 3922535.677 -11816888.299 22261717.061 10 0 59660 75600.00000 0 5521658.393 -9519224.460 23011261.980 10 0 59660 76500.00000 0 7333919.763 -7301608.055 23313896.854 10 0 59660 77400.00000 0 9317489.990 -5222896.933 23163764.361 10 0 59660 78300.00000 0 11420751.666 -3333698.646 22563794.549 10 0 59660 79200.00000 0 13584290.833 -1674450.191 21525646.980 10 0 59660 80100.00000 0 15743229.600 -273935.879 20069484.484 10 0 59660 81000.00000 0 17829803.753 851696.003 18223582.784 10 0 59660 81900.00000 0 19776078.456 1699377.827 16023783.235 10 0 59660 82800.00000 0 21516689.104 2279011.069 13512798.941 10 0 59660 83700.00000 0 22991493.188 2612804.365 10739387.297 10 0 59660 84600.00000 0 24148022.403 2734089.993 7757404.581 10 0 59660 85500.00000 0 24943632.415 2685669.505 4624760.811 99